GFSCGP_2pvu_pres_132.txt.gz
Presure
180 182 181 185 128 182 179 167 175 168 169 167 169 177 200 199 197 194 206 210 216 207 193 191 210 214 205 203 202 199 194 193 107 192 202 204 208 210 205 200 203 196 189 192
187 187 187 184 185 180 178 178 176 175 181 180 205 210 200 196 203 211 202 202 205 207 206 211 211 209 209 210 210 205 199 206 206 210 203 207 210 213 213 208 206 212 212 200
186 192 181 198 175 173 167 172 174 184 169 204 213 199 203 196 190 198 209 205 201 224 219 225 211 208 206 207 209 209 208 205 203 208 211 209 213 215 215 216 217 217 214 216
184 172 165 185 179 172 187 192 220 189 218 202 196 194 198 187 186 196 205 205 213 220 218 214 213 204 213 220 217 215 215 213 212 212 115 213 217 220 220 217 222 223 225 222
166 165 187 174 172 174 168 172 217 196 207 205 201 195 200 197 203 199 207 209 206 215 210 208 214 210 215 218 216 217 223 224 215 86 227 225 227 221 226 225 226 220 219 231
183 167 195 176 174 183 202 204 187 201 203 200 208 191 196 196 189 218 210 214 212 213 215 212 218 213 213 205 203 221 222 216 221 234 237 237 233 237 266 127 286 349 374 381
169 197 169 175 188 175 211 192 202 198 194 200 197 194 193 157 202 212 212 219 208 215 210 214 217 217 225 223 209 214 235 236 251 300 290 353 369 354 347 347 220 325 327 350
166 209 208 169 217 198 184 197 211 220 222 221 203 198 211 206 214 219 199 208 214 210 211 218 217 218 221 202 226 236 243 263 344 344 344 346 341 330 208 311 303 322 302 319
200 164 187 203 183 203 207 210 224 224 221 220 211 208 207 207 210 210 215 214 230 215 221 226 229 225 228 235 205 253 292 330 286 294 333 344 318 308 304 284 287 282 303 174
209 207 208 204 217 217 221 219 224 218 217 215 213 207 200 202 212 214 222 235 227 225 227 228 231 236 243 262 315 307 284 267 306 330 332 327 303 292 220 278 195 259 287 158
211 216 216 226 212 211 212 215 217 218 221 229 234 239 263 270 251 250 254 254 246 239 238 243 247 249 298 307 284 266 255 288 298 318 326 303 296 275 275 262 260 263 263 263
225 227 229 226 217 215 227 235 241 267 257 290 294 287 283 276 270 266 263 259 251 250 280 290 287 302 289 267 264 252 283 279 281 284 315 304 309 278 276 247 274 262 264 277
224 228 229 227 227 235 250 263 271 280 264 283 266 219 279 278 276 272 273 278 278 278 278 275 273 275 265 253 248 289 275 265 265 276 290 312 301 296 250 262 274 253 274 267
229 228 240 246 274 259 257 283 272 251 256 236 256 258 251 266 267 274 273 265 268 269 271 266 265 256 242 293 290 275 274 273 263 266 270 282 269 279 253 252 258 253 253 256
246 252 259 277 281 283 272 280 266 269 269 263 239 253 240 247 263 254 257 254 257 267 259 251 247 240 296 292 275 265 271 275 270 259 255 263 272 272 263 266 271 270 253 256
291 287 280 289 284 289 290 291 282 277 275 272 272 273 243 248 244 240 251 248 248 247 245 251 276 301 294 280 268 262 260 270 259 255 253 257 255 259 257 265 277 271 260 255
290 290 291 296 291 294 303 299 298 295 285 279 278 267 265 268 257 242 249 258 243 242 271 273 291 288 278 274 265 263 259 254 255 250 251 252 253 251 255 256 263 265 262 260
282 287 286 291 286 294 287 291 294 303 305 295 294 294 291 280 272 268 268 268 265 275 271 285 275 273 273 268 261 262 264 263 251 247 247 249 245 249 259 248 258 249 249 250
285 289 292 293 287 304 317 319 307 310 283 280 302 300 294 285 282 275 272 276 273 270 282 272 270 259 256 259 265 269 267 267 266 261 255 250 251 248 246 255 260 252 254 256
288 295 295 296 299 298 313 314 320 313 311 299 299 298 295 288 278 279 275 270 272 275 269 268 265 261 263 269 273 289 319 450 457 450 311 267 255 255 256 244 253 259 258 253
297 295 295 297 299 327 326 307 301 311 304 304 296 290 285 279 278 268 268 269 265 262 262 261 261 265 273 312 346 406 412 414 412 417 413 395 329 264 259 256 250 250 253 248
295 295 301 333 321 312 307 309 302 301 304 302 289 281 282 273 265 267 263 257 259 258 256 261 262 294 338 351 372 380 379 376 381 392 386 360 353 350 276 255 249 246 247 243
342 331 313 309 306 310 308 299 303 303 293 292 285 274 269 261 270 250 262 258 256 253 256 263 330 371 366 347 359 357 362 363 361 351 340 332 324 325 314 303 273 257 250 247
319 311 306 318 305 310 303 306 295 291 283 277 269 276 269 258 248 254 257 255 250 251 270 295 347 340 332 339 341 344 344 340 335 322 309 276 282 294 286 291 292 290 274 265
325 325 310 307 302 304 308 300 285 278 274 276 272 264 250 248 259 255 251 248 250 257 305 334 329 318 310 310 319 322 319 311 298 279 288 294 291 283 284 284 278 275 276 276
307 302 303 300 299 301 294 284 276 273 274 270 253 246 254 256 253 250 247 246 250 298 286 324 308 295 293 302 307 304 296 297 279 265 281 285 269 268 268 265 262 263 264 261

GFSCGP_2pvu_pres_135.txt.gz
Presure
195 186 183 186 163 167 185 178 177 163 186 187 182 195 175 182 176 175 180 213 174 213 204 205 203 185 205 213 205 206 203 213 208 204 206 201 191 194 198 195 195 194 198 202
175 184 192 190 188 182 185 189 187 183 191 189 203 191 193 177 180 202 175 220 212 199 195 199 193 204 197 203 211 195 224 205 202 210 211 210 210 213 209 205 205 210 203 201
170 207 193 177 181 181 181 181 175 178 183 175 182 175 165 170 173 187 190 203 198 199 203 196 198 203 206 215 223 214 225 222 221 217 187 202 212 214 214 215 215 213 209 210
151 170 179 186 179 157 187 193 180 184 169 174 173 187 189 198 176 178 195 211 210 204 218 201 197 204 195 214 211 213 210 216 214 214 216 217 219 217 221 222 219 221 223 226
158 201 159 162 180 175 187 208 194 172 175 171 181 184 168 167 215 210 192 194 198 196 203 204 200 206 194 214 217 221 215 215 216 220 219 219 216 214 203 207 218 214 218 219
169 189 184 175 167 197 180 165 156 190 177 182 175 171 202 175 187 207 177 191 226 226 222 210 209 204 203 211 219 204 210 217 215 217 220 219 224 211 220 222 229 232 239 126
199 200 173 166 199 157 168 174 189 173 191 193 178 164 190 187 153 187 197 209 220 167 220 224 220 216 217 225 217 224 219 226 225 218 221 225 169 230 231 244 265 159 375 375
190 171 180 161 195 179 196 170 201 196 187 190 207 206 172 186 197 222 223 224 225 221 221 224 222 75 214 215 217 223 223 241 243 241 241 242 248 257 293 330 294 282 354 339
215 188 172 189 162 181 191 167 186 210 184 182 210 200 208 206 220 223 220 226 225 222 223 223 214 227 233 94 151 243 208 253 256 254 252 260 298 295 281 275 338 332 321 307
166 188 201 206 199 205 217 209 210 198 222 192 203 210 206 225 226 205 218 233 248 267 271 269 270 266 264 263 258 261 265 271 262 291 307 289 276 271 281 345 341 308 300 296
208 214 214 215 219 215 214 225 220 220 223 221 228 227 220 227 221 226 249 291 285 279 271 269 265 263 264 265 269 273 278 218 282 287 275 267 263 284 292 334 320 292 294 282
220 220 229 101 126 218 221 220 226 223 225 224 223 232 227 235 241 266 290 161 272 270 267 262 265 269 269 272 277 280 282 278 269 265 254 252 275 279 274 330 319 291 280 262
220 218 219 217 217 217 226 229 232 229 229 233 236 243 242 270 275 283 273 263 248 239 250 264 267 263 272 274 274 270 278 265 250 251 290 273 284 276 270 279 315 288 271 262
223 223 223 230 232 232 236 250 243 251 248 257 282 279 71 283 278 273 269 271 276 196 255 248 265 264 259 258 256 260 251 249 259 289 283 279 280 275 259 270 272 287 290 252
225 231 226 239 242 246 256 267 297 294 282 270 289 283 289 279 268 268 271 274 273 261 257 247 255 249 254 253 247 245 244 276 295 285 274 267 276 269 256 260 267 269 259 262
241 239 251 256 260 312 308 302 170 285 294 290 285 295 282 274 273 267 264 268 268 267 268 255 249 249 248 247 254 246 278 298 290 283 273 265 264 262 260 254 254 261 263 268
261 272 268 275 263 272 306 96 287 296 295 292 297 298 291 286 288 280 266 277 278 275 272 263 277 263 268 271 279 280 286 284 287 278 275 262 262 258 255 254 252 250 250 253
284 287 291 298 295 302 297 288 289 285 290 291 290 299 294 293 298 298 295 287 280 279 281 285 278 279 278 282 281 284 278 277 273 268 267 265 262 263 256 247 249 251 250 242
293 294 287 291 294 303 307 288 294 301 311 290 301 316 330 323 313 290 289 303 296 288 282 279 277 276 280 281 279 272 274 274 270 270 269 267 267 265 264 255 247 247 250 249
287 286 288 302 297 297 291 287 295 300 312 296 331 326 332 320 309 306 298 294 287 283 277 275 274 274 276 268 267 268 271 272 285 321 381 455 447 432 266 264 255 254 254 249
286 281 287 287 291 291 292 295 308 314 312 339 322 309 311 307 304 297 289 283 279 275 269 270 268 264 261 263 266 269 293 343 379 390 403 403 403 400 391 344 263 257 252 252
287 283 285 286 290 292 291 308 332 326 319 309 307 308 307 301 292 286 282 276 270 264 268 262 258 260 262 263 290 365 358 357 363 377 373 377 373 376 362 359 347 273 261 258
297 292 291 287 289 284 304 297 319 311 301 298 312 300 294 287 281 275 269 263 270 261 253 252 256 258 261 361 348 340 336 349 359 354 353 353 346 346 338 328 320 308 268 260
302 300 300 300 345 347 323 312 297 301 294 301 293 288 284 275 269 270 270 261 251 251 256 251 254 256 351 331 327 331 335 344 339 332 337 332 328 324 313 306 301 301 302 280
299 300 310 325 322 315 309 308 308 300 307 294 287 274 268 265 262 265 254 249 255 255 250 249 253 313 321 308 309 317 321 321 328 327 317 305 290 297 288 296 293 290 288 285
314 328 318 313 325 311 310 307 307 306 288 280 273 271 264 264 260 248 251 252 251 250 248 250 293 337 307 293 289 310 310 309 303 284 276 276 273 283 286 285 280 274 269 267

GFSCGP_2pvu_pres_138.txt.gz
Presure
173 166 164 166 166 176 176 157 186 178 180 192 196 187 168 188 181 171 185 186 193 169 188 190 197 188 206 174 200 182 192 200 194 196 194 192 205 206 199 202 206 208 201 196
207 182 173 193 178 157 180 176 183 178 165 198 187 194 179 190 200 192 180 186 166 180 185 172 185 186 198 218 195 208 207 210 208 198 204 210 222 221 225 213 208 199 207 205
200 183 176 173 184 161 172 152 164 167 158 193 187 155 187 176 190 181 206 181 185 181 175 176 178 200 212 211 206 189 202 213 211 210 205 210 208 229 230 230 239 229 224 224
160 172 158 191 173 156 175 161 148 189 181 176 179 199 160 179 181 212 163 198 195 195 200 174 187 187 199 189 190 202 210 214 225 224 215 210 200 206 220 212 223 222 228 230
149 156 180 156 182 163 149 191 167 173 167 169 182 173 159 160 204 163 162 171 198 170 178 196 187 211 180 191 210 214 209 211 225 228 224 224 218 217 224 222 214 210 217 222
162 164 157 159 155 179 168 161 170 157 157 176 190 187 178 167 164 159 199 192 175 194 213 202 208 220 201 220 225 225 222 219 224 220 224 230 232 224 218 213 222 212 219 231
183 175 159 161 152 166 197 211 168 201 208 182 164 193 177 180 164 197 205 185 178 219 222 221 222 209 212 213 222 228 226 230 245 224 222 226 225 226 229 231 229 238 242 251
181 191 192 192 183 155 205 212 190 170 223 223 205 205 202 175 178 212 214 226 227 222 202 218 202 94 214 233 233 231 233 269 267 266 270 264 248 269 270 266 262 260 268 285
177 180 169 214 208 220 189 178 208 213 201 207 172 191 186 184 216 224 197 220 226 234 231 239 231 235 233 231 237 285 280 275 275 271 273 273 273 270 273 278 281 288 305 292
205 191 197 197 217 221 190 218 218 215 210 222 220 225 211 225 222 217 211 158 228 238 243 240 235 244 261 267 279 281 275 271 271 267 266 271 279 283 289 293 280 281 274 269
147 202 218 219 216 173 221 221 208 214 214 213 216 218 167 221 216 224 227 242 246 253 248 320 279 270 274 278 271 264 261 265 258 269 279 284 279 285 279 269 265 265 290 286
212 220 184 211 216 219 221 218 215 215 217 220 213 215 204 231 233 234 254 263 205 294 279 244 283 277 277 268 258 251 248 249 267 272 281 264 254 269 260 252 253 293 282 276
204 162 214 220 222 215 208 113 216 213 216 222 216 223 82 231 244 257 288 283 280 270 285 261 262 256 288 269 257 260 260 181 129 270 264 255 251 250 248 285 288 282 277 267
220 208 208 219 219 224 217 214 216 217 217 221 229 234 239 282 281 286 291 283 281 279 273 255 263 281 257 268 270 271 262 254 248 255 249 253 253 242 300 288 277 279 271 258
221 224 225 230 224 216 218 226 225 232 234 236 243 257 270 277 266 256 280 279 278 273 269 269 259 252 257 270 274 277 274 267 254 254 250 259 265 290 292 280 272 266 273 257
226 233 230 226 221 237 241 240 233 238 248 279 281 290 285 288 286 289 297 290 280 269 264 256 262 273 263 269 270 273 279 276 273 274 276 278 280 280 287 279 271 265 264 256
258 248 251 258 260 259 278 271 278 284 287 284 287 289 293 291 295 300 295 291 294 295 290 285 263 267 269 282 286 294 283 287 283 280 280 280 282 279 275 277 274 267 263 265
288 286 269 291 300 299 294 286 284 290 302 300 288 294 292 294 307 306 309 302 285 270 281 282 285 289 291 308 298 282 280 278 278 277 282 284 280 278 278 267 264 264 261 257
306 305 300 299 300 298 301 273 297 301 305 288 294 291 290 298 311 320 316 314 314 328 310 301 281 299 299 288 278 274 273 272 275 277 275 276 277 277 273 269 266 260 259 260
298 302 298 296 288 299 302 286 291 294 304 128 289 290 300 310 326 340 326 322 322 314 303 302 298 290 279 272 268 269 270 270 269 274 273 276 298 398 415 435 440 419 266 263
288 286 291 290 287 293 286 286 284 284 284 285 294 299 311 344 341 325 309 309 306 301 294 287 278 270 265 264 264 263 263 268 266 288 363 360 372 378 392 398 403 396 380 273
294 286 290 285 288 295 285 282 284 284 293 297 303 312 320 321 312 308 310 297 290 285 278 271 264 264 261 258 255 261 260 307 350 347 346 351 353 372 370 369 361 358 361 365
299 296 295 295 293 284 283 287 284 287 298 305 305 336 318 309 300 297 294 285 281 272 264 266 262 257 251 253 256 258 324 324 333 338 343 338 354 353 340 349 344 337 338 335
300 300 297 288 287 287 291 299 302 310 322 338 325 308 297 298 295 286 279 273 267 267 260 259 251 251 251 252 258 321 314 313 320 327 327 340 341 323 322 323 321 321 322 316
295 287 293 290 289 305 296 291 316 323 325 316 299 298 307 295 286 277 270 262 267 260 252 253 248 249 249 249 314 292 300 311 317 312 333 329 315 306 307 305 302 304 299 294
291 288 284 294 299 301 330 320 314 320 307 308 299 304 286 282 272 268 264 264 259 248 252 246 249 247 246 271 300 287 301 296 276 310 310 267 283 265 283 271 271 271 274 279

GFSCGP_2pvu_pres_141.txt.gz
Presure
138 198 167 179 174 158 196 205 174 178 177 176 189 213 178 177 150 169 169 178 159 178 152 113 173 170 184 194 205 206 209 185 185 182 203 179 203 213 192 197 211 216 203 208
153 144 184 165 170 176 150 160 172 186 183 188 176 173 201 160 162 159 178 165 183 188 191 194 207 197 189 165 170 180 182 181 198 191 196 209 194 181 216 213 218 228 219 203
170 165 160 177 165 158 143 155 165 150 149 157 169 188 161 168 149 147 192 182 191 193 191 195 195 190 162 197 204 186 191 185 210 209 210 195 215 200 225 220 205 227 225 234
168 163 159 154 164 177 175 176 169 166 162 160 149 174 161 155 192 176 168 160 169 195 202 167 169 179 197 171 177 199 197 202 211 207 196 216 204 218 214 208 231 231 229 232
180 180 160 160 192 188 185 170 168 161 167 172 180 189 139 164 156 163 171 207 170 164 207 198 184 205 195 215 205 196 210 206 221 222 227 223 229 216 223 228 237 228 224 232
175 173 168 173 169 163 177 161 164 181 171 187 178 180 181 130 86 209 184 132 182 206 227 218 212 218 202 206 207 220 215 205 225 237 218 232 216 230 231 241 232 230 247 271
164 176 172 158 161 181 192 186 176 186 177 187 183 202 191 218 195 239 227 213 219 190 216 207 200 221 230 231 229 226 223 226 248 252 246 245 237 239 256 272 274 277 268 271
166 171 186 168 164 171 170 172 182 191 183 208 187 218 221 168 208 221 230 177 220 220 224 220 217 219 220 227 234 240 240 270 279 266 269 270 271 277 276 280 280 251 288 285
186 166 161 191 191 170 176 184 207 184 180 228 184 225 207 219 212 219 230 228 219 221 224 221 223 219 227 236 253 287 286 305 296 261 269 273 273 274 275 274 273 277 277 284
168 172 184 197 199 190 195 208 172 220 188 210 197 217 196 217 204 215 223 217 222 221 219 216 222 224 233 248 275 288 296 282 270 286 280 274 268 266 264 256 255 266 281 273
215 198 211 211 209 180 207 228 189 235 197 215 193 212 193 211 221 219 218 197 226 225 221 221 224 227 261 264 284 282 256 268 274 268 272 269 264 258 254 261 261 272 266 262
216 222 172 216 230 238 212 245 219 208 207 212 213 223 196 96 94 219 224 226 229 233 233 242 258 97 283 288 256 257 260 289 279 275 251 271 266 264 272 267 256 259 260 256
225 241 210 234 216 199 209 206 211 212 213 216 221 216 76 188 233 236 237 241 245 255 266 276 281 279 240 269 268 256 263 274 261 267 266 260 274 276 277 266 253 249 251 261
213 209 212 228 206 181 205 205 137 215 217 214 224 234 230 230 237 242 252 258 288 295 281 277 275 275 277 264 261 272 276 265 268 287 271 267 278 272 291 285 273 263 267 301
213 218 215 217 210 211 214 212 209 215 223 221 238 249 257 256 272 276 276 282 280 273 270 272 273 268 262 266 270 274 287 275 269 269 278 270 282 295 287 282 283 280 284 290
207 218 217 226 210 214 214 217 100 234 238 242 276 270 268 277 275 288 288 274 278 283 289 287 288 293 291 287 281 284 276 285 280 274 268 287 297 287 283 283 279 279 281 281
217 222 220 229 231 235 241 198 239 279 222 283 278 283 89 286 289 292 284 286 287 294 301 300 293 299 283 286 299 295 287 287 277 296 311 289 280 280 279 278 278 281 284 278
246 230 229 249 259 289 297 267 182 88 296 296 298 302 294 292 290 287 291 282 292 295 295 305 302 311 299 289 269 287 299 280 301 290 280 276 276 276 277 280 281 280 278 276
276 273 275 306 320 319 314 132 300 300 314 298 293 290 291 291 292 287 294 288 292 299 321 336 338 316 302 285 293 304 285 290 278 272 270 270 270 272 273 275 277 275 269 268
322 321 322 323 318 321 292 295 294 297 316 117 286 290 286 285 282 283 289 298 307 331 322 322 323 327 325 315 302 293 277 270 265 265 265 264 264 268 287 340 374 384 407 433
315 312 315 315 316 324 312 297 289 294 287 286 278 284 286 281 287 285 298 308 341 329 318 312 314 306 299 287 277 269 264 262 260 260 259 270 311 351 361 359 365 382 383 386
313 312 304 299 304 310 294 287 287 285 286 282 283 291 292 289 298 297 307 330 318 305 305 299 295 287 276 269 264 261 258 258 255 258 312 325 336 353 350 358 363 362 363 365
303 305 304 302 308 303 298 289 284 293 285 295 293 290 292 300 316 325 323 314 299 306 295 286 278 267 264 260 258 254 255 250 265 312 317 323 336 347 341 343 348 336 334 330
313 306 314 307 295 296 294 294 295 297 289 294 296 301 335 324 323 315 308 300 294 288 281 271 262 261 260 252 252 254 249 265 309 304 301 317 329 332 322 323 322 328 325 321
314 314 309 302 297 292 292 295 296 296 296 307 312 303 324 328 316 303 296 298 285 275 267 265 253 257 251 249 251 247 249 305 298 283 277 308 309 318 294 301 310 303 296 294
304 298 300 292 290 295 293 293 296 292 306 308 320 315 313 313 299 303 294 287 274 262 265 255 255 250 250 250 250 241 248 286 270 288 278 294 302 282 267 254 278 290 280 279

GFSCGP_2pvu_pres_147.txt.gz
Presure
160 156 157 167 156 167 167 168 177 164 165 162 184 185 183 176 179 182 135 166 185 162 142 158 159 167 179 190 194 190 187 174 76 180 207 205 208 217 209 174 219 218 208 220
161 170 159 131 165 173 175 178 157 180 159 175 183 197 177 188 183 177 173 171 159 154 159 161 181 163 162 164 168 175 174 179 185 203 239 191 219 214 213 215 215 216 212 216
174 160 164 171 172 168 168 169 163 167 163 168 168 171 149 173 179 191 182 172 160 167 169 168 157 167 168 162 172 199 199 202 172 201 188 202 204 219 219 206 207 208 210 216
171 172 168 167 179 164 180 179 170 174 181 172 168 177 152 180 165 170 178 175 184 177 175 173 176 160 169 196 189 184 180 175 192 218 208 221 226 190 217 234 243 238 228 221
174 174 171 181 185 191 179 178 177 170 189 185 167 154 169 152 162 170 172 171 171 180 194 166 170 165 95 140 201 216 212 218 208 207 215 209 190 226 200 273 263 247 251 256
172 171 167 158 178 170 180 181 174 181 190 163 176 167 167 150 162 115 67 182 183 161 167 157 171 198 211 215 207 232 216 216 208 201 215 226 226 233 267 266 259 260 275 279
172 177 175 170 172 164 181 173 171 183 181 174 169 172 157 163 118 158 179 190 184 170 205 234 213 222 246 232 180 218 192 202 209 210 226 228 239 271 271 261 266 273 292 304
187 179 160 165 175 168 179 176 164 177 185 173 152 173 159 174 157 161 179 204 187 223 182 251 237 199 167 229 209 218 220 198 216 219 230 265 281 277 266 275 295 286 278 281
177 194 174 205 182 176 196 175 171 207 183 184 161 159 167 179 172 199 200 169 169 201 174 198 205 225 198 217 212 213 204 159 208 227 289 268 274 265 296 282 279 279 296 297
182 210 170 162 211 188 199 183 171 168 180 180 162 186 177 181 206 177 207 230 212 228 227 223 217 212 212 191 207 214 214 226 228 281 278 268 266 272 270 278 267 228 268 279
206 204 196 167 200 203 177 176 187 208 193 209 188 193 151 164 212 209 223 214 194 233 200 145 212 204 199 211 216 226 220 222 287 282 267 270 283 278 274 273 275 273 193 281
199 193 208 203 195 198 197 213 208 205 208 189 203 202 186 200 170 215 218 225 228 217 233 206 209 212 216 220 223 234 237 298 298 290 273 267 262 262 191 267 270 281 287 281
188 193 196 196 189 196 194 194 191 204 202 204 202 222 200 214 212 219 220 223 210 207 211 214 214 217 115 229 230 242 281 279 279 265 271 266 260 283 280 292 292 283 279 277
209 211 209 203 202 206 210 205 210 210 202 202 183 213 210 138 220 229 226 211 225 216 224 224 229 229 235 268 261 283 287 275 272 191 232 290 285 291 297 293 291 286 284 276
215 216 203 207 204 210 216 210 202 201 209 215 201 189 222 218 220 216 227 223 221 222 233 236 255 283 273 270 279 274 276 279 235 291 292 300 289 291 283 283 280 279 278 278
221 216 225 217 219 211 220 207 208 223 213 224 211 212 219 225 218 228 223 229 231 231 236 296 296 286 274 285 284 286 293 291 289 302 292 291 290 290 289 300 302 311 305 273
228 234 234 226 219 228 226 232 223 214 88 236 99 240 241 229 230 235 238 237 237 270 269 290 282 284 289 291 289 289 293 295 291 287 291 306 324 327 334 317 296 278 292 296
245 235 242 233 123 238 242 248 248 256 256 251 244 106 262 263 289 301 294 293 292 289 297 288 293 279 289 288 292 289 291 286 290 303 344 331 342 330 339 309 301 285 272 268
279 276 266 272 273 268 259 264 273 283 276 274 305 305 302 311 303 290 296 114 294 296 285 288 285 289 285 288 281 285 290 289 304 342 319 314 308 296 285 274 267 264 263 277
280 286 281 286 279 317 275 273 177 307 308 99 204 258 311 306 295 289 283 292 291 285 287 288 288 286 288 288 287 290 299 309 323 307 300 290 279 269 265 262 263 282 314 312
312 315 311 338 334 335 302 300 321 324 80 171 316 307 298 294 296 294 295 290 295 297 298 290 285 284 287 289 306 300 341 321 303 291 282 271 265 261 261 279 314 307 329 346
324 326 325 323 330 336 334 351 340 332 328 328 319 312 309 308 306 304 301 300 298 298 296 290 289 293 303 303 323 336 310 298 282 276 264 260 258 253 293 296 290 336 337 348
321 311 342 341 335 332 333 339 343 337 331 321 315 310 305 299 296 297 298 302 299 300 296 300 304 304 320 330 321 306 294 280 273 260 259 255 249 251 282 302 303 310 280 320
316 267 308 314 306 315 320 321 322 321 322 318 313 311 311 308 305 303 302 302 296 296 302 300 313 344 326 315 307 296 281 270 259 259 254 251 251 247 268 294 288 290 301 295
301 282 282 300 303 324 301 305 314 318 315 308 306 306 306 306 304 297 295 298 296 296 309 316 341 320 309 301 290 282 267 259 258 254 251 252 248 245 248 257 282 272 274 291
249 284 298 305 311 311 314 311 311 306 310 315 322 314 307 306 299 293 294 297 300 326 315 318 315 304 300 287 281 267 261 259 254 252 251 251 245 243 244 246 251 260 277 267

GFSCGP_2pvu_pres_153.txt.gz
Presure
172 133 134 154 179 168 177 170 186 168 179 174 171 164 158 176 166 145 169 169 175 179 159 155 171 162 182 192 166 181 179 172 174 180 171 171 185 170 179 182 179 179 171 191
131 171 169 178 173 161 176 189 183 133 182 176 174 179 163 153 167 172 178 173 158 155 178 163 173 179 184 183 170 172 174 176 173 173 177 168 160 170 172 170 218 232 166 215
164 177 185 172 176 173 158 190 174 174 166 179 175 178 172 174 171 158 159 164 162 166 169 178 179 157 157 178 177 178 171 170 167 164 169 167 199 195 189 206 180 177 215 231
179 182 147 191 153 151 180 171 180 177 182 181 170 177 160 162 167 172 173 168 167 174 163 160 164 175 169 176 162 174 177 168 181 183 174 178 210 175 209 217 230 239 236 213
163 160 185 154 175 168 171 177 168 179 167 177 158 160 177 169 162 166 157 160 144 182 177 175 175 165 172 181 172 163 176 179 169 167 167 193 176 180 227 241 184 191 210 224
167 176 179 188 175 134 167 181 160 169 171 192 155 181 166 171 158 150 150 163 184 168 177 184 184 176 172 182 182 189 196 188 184 163 171 190 183 221 185 211 237 227 225 219
168 167 188 172 158 170 191 182 192 175 188 189 165 182 181 169 166 166 173 169 170 160 167 177 191 188 182 182 198 192 205 204 182 215 164 183 202 186 193 180 217 220 222 226
178 173 207 179 184 185 196 178 183 186 179 175 184 189 141 186 179 176 171 175 179 186 178 181 161 176 171 199 179 173 170 185 233 182 174 206 220 216 215 215 208 230 235 230
210 212 213 199 200 198 188 179 209 147 142 179 202 180 164 180 185 179 178 199 205 194 190 191 204 193 170 186 189 206 226 241 244 230 214 215 203 204 210 209 217 240 233 235
212 208 206 185 200 198 203 188 190 202 203 203 210 200 192 198 204 203 184 209 170 204 206 212 173 207 210 216 230 227 233 209 218 217 194 212 207 209 216 227 238 230 252 280
212 199 194 190 199 198 196 190 192 192 194 188 200 202 200 193 189 206 209 215 200 213 188 211 224 215 218 221 221 214 224 216 174 221 213 216 216 231 229 243 249 257 266 290
201 204 197 193 191 192 201 198 196 196 201 203 195 201 195 202 208 217 221 237 226 229 210 195 209 203 218 213 213 209 219 215 209 219 226 222 229 240 255 281 104 283 286 295
215 198 192 195 212 210 201 198 202 206 198 211 197 201 198 216 207 216 228 212 215 214 206 192 210 202 207 202 215 212 222 227 225 232 238 229 230 295 295 291 280 248 278 303
211 210 216 212 210 215 217 227 205 200 195 181 208 191 206 208 209 156 223 218 214 210 210 206 211 216 207 214 220 234 229 229 228 250 245 283 286 285 286 274 270 275 281 314
202 195 197 203 204 206 209 199 199 198 189 198 194 197 196 204 221 224 219 221 214 213 219 217 213 231 230 227 249 246 248 254 278 286 283 279 278 276 269 269 268 270 307 303
196 211 211 216 196 211 216 210 210 198 208 212 209 216 224 216 224 223 215 218 236 221 233 243 244 277 274 265 253 252 283 254 279 278 276 274 269 269 265 270 290 307 302 300
217 242 218 238 216 225 217 235 219 232 236 235 164 200 224 240 255 251 230 246 245 270 259 259 264 263 248 251 267 260 278 274 275 277 268 267 274 272 291 273 308 303 305 325
258 249 265 253 254 277 243 199 233 261 184 247 256 266 285 280 274 278 273 274 268 272 268 267 269 177 277 270 271 264 274 275 292 282 285 291 296 284 288 300 305 304 318 308
291 290 283 287 285 300 298 287 285 286 285 282 288 287 286 281 274 267 114 139 276 272 272 266 262 276 278 280 277 286 297 301 287 280 299 296 289 306 305 308 304 318 309 274
312 299 302 306 300 310 294 298 298 299 277 273 276 284 284 288 288 95 256 181 292 287 289 290 291 289 291 287 281 285 290 292 292 291 298 316 303 307 302 307 319 321 271 262
315 308 291 323 325 334 318 307 300 299 296 297 299 241 296 219 298 179 91 303 302 301 300 301 299 297 294 289 293 296 298 319 316 310 303 304 299 299 308 325 336 271 265 254
311 326 317 311 311 315 307 303 301 303 305 304 305 307 310 310 309 310 313 317 320 315 319 311 306 303 309 313 318 319 305 302 297 299 300 302 300 308 319 333 271 265 256 257
325 315 320 320 314 228 307 311 310 308 305 315 325 326 326 332 344 357 355 351 352 353 346 340 334 324 316 308 304 301 299 299 296 300 299 302 302 300 333 278 266 260 258 245
314 322 312 317 311 248 294 309 312 313 313 312 321 326 315 317 320 348 336 329 328 329 326 318 312 309 304 303 302 297 294 297 301 302 300 314 336 322 289 266 262 256 257 247
319 304 307 306 303 300 299 305 311 308 301 302 308 307 318 321 312 297 322 314 317 313 310 306 305 304 301 300 298 298 300 298 294 305 333 318 309 292 274 264 259 255 251 250
295 307 297 307 299 209 315 300 294 296 304 305 283 301 296 328 339 328 315 305 312 308 305 302 301 300 299 301 300 296 295 294 308 319 306 302 292 279 266 262 254 253 250 249

GFSCGP_2pvu_pres_159.txt.gz
Presure
185 186 172 180 187 193 148 159 190 164 205 177 184 168 148 165 159 163 172 150 168 161 171 174 153 161 174 165 167 170 165 163 168 169 171 168 170 164 171 177 182 193 182 195
179 146 171 184 184 151 160 148 173 167 176 177 158 170 162 153 151 158 165 153 147 165 171 168 174 163 159 168 171 161 155 167 171 171 183 166 174 172 184 183 170 185 187 176
155 157 174 155 154 180 155 160 170 137 164 142 162 160 163 157 138 173 169 162 172 170 167 169 168 168 150 161 161 163 145 170 169 167 166 165 176 174 180 174 172 187 184 187
152 167 148 161 156 173 170 173 154 167 162 161 163 170 159 159 147 153 142 157 178 171 167 159 164 170 163 145 169 166 163 165 162 164 167 163 181 168 181 172 204 166 213 203
157 172 176 160 169 172 172 126 165 143 172 171 166 140 183 115 162 146 180 169 166 179 176 175 169 172 172 172 173 166 171 173 170 171 171 171 183 178 207 192 226 198 207 227
181 159 170 160 170 172 165 155 140 157 162 170 169 167 63 189 171 77 196 194 124 157 187 185 181 181 182 176 175 177 171 168 177 180 171 166 177 181 189 194 185 199 204 197
189 161 173 174 172 184 134 158 172 174 157 184 185 183 190 187 162 178 197 178 202 181 175 184 182 186 182 183 188 182 188 179 146 190 192 180 207 191 197 195 211 214 207 214
154 178 200 177 164 176 159 165 182 171 181 176 185 191 184 181 189 190 201 198 210 202 192 188 193 193 189 189 184 194 196 194 188 188 194 189 194 186 188 193 209 207 200 210
154 177 172 189 193 184 145 174 171 180 193 189 186 195 180 198 179 198 196 200 199 198 195 182 184 197 200 196 197 186 190 189 193 189 166 193 189 195 176 193 207 207 204 185
180 194 197 201 208 185 184 180 188 194 192 197 195 188 183 203 197 203 192 198 201 199 194 193 187 190 194 194 188 187 193 192 196 198 211 198 181 195 210 209 209 211 211 211
189 204 220 202 203 195 197 196 193 199 198 200 190 181 200 195 205 208 193 202 202 196 196 191 187 187 189 191 191 190 193 189 212 195 212 194 212 120 213 206 214 215 219 223
193 197 215 218 196 192 189 207 200 206 187 192 196 203 208 211 197 204 208 196 202 200 200 191 194 203 200 190 205 195 190 206 191 216 201 204 205 206 215 213 219 218 227 224
201 205 199 198 200 212 206 201 194 193 206 197 190 208 198 201 187 212 209 209 204 201 226 209 215 212 205 189 193 195 194 202 203 209 207 207 204 207 215 233 227 229 243 237
165 178 199 213 211 197 189 190 197 197 198 172 212 215 206 201 209 207 212 214 207 209 220 211 220 209 207 210 216 214 218 204 204 200 206 232 215 233 227 223 237 247 251 253
193 188 200 181 191 178 185 191 205 198 211 193 208 210 204 200 203 202 218 216 217 216 211 203 204 207 210 211 209 211 220 223 222 220 235 229 247 263 239 271 255 260 262 288
224 224 220 198 227 194 208 204 211 221 213 216 220 216 202 220 231 237 231 227 228 229 210 209 212 213 230 223 219 227 238 230 237 259 258 277 237 262 263 272 281 274 273 260
218 219 216 217 210 207 212 223 223 211 227 226 224 232 237 233 239 245 237 242 225 245 233 233 242 265 220 243 236 274 251 265 266 283 281 272 268 268 271 269 266 266 260 261
258 273 247 238 237 258 275 277 259 253 242 277 270 278 246 251 267 268 266 268 256 256 262 267 242 276 289 284 270 272 280 279 278 275 270 268 269 267 268 267 259 263 259 260
274 263 276 276 272 279 281 277 273 281 270 272 265 253 266 265 260 257 274 289 241 262 277 267 279 288 293 289 289 286 275 266 262 267 266 267 267 264 264 263 264 264 265 273
288 274 275 283 263 307 257 263 299 307 269 245 257 249 294 297 287 256 264 307 302 301 310 308 307 284 115 296 297 291 287 282 278 277 276 275 273 274 275 273 277 282 292 306
313 329 319 292 298 244 311 270 270 287 293 299 292 297 289 320 281 318 311 213 311 310 312 254 120 91 307 270 298 295 292 292 291 294 295 296 293 289 285 289 290 324 303 318
297 307 307 308 294 296 283 309 305 302 331 331 336 318 337 330 320 326 325 213 320 321 319 316 311 257 294 315 320 345 340 341 342 327 324 322 328 324 319 319 314 316 307 302
294 300 293 297 255 293 300 306 330 335 313 302 332 325 320 318 317 317 319 322 268 329 348 343 160 217 338 340 337 342 337 335 333 329 321 321 319 316 312 308 304 301 297 295
289 293 290 302 298 257 311 319 308 306 95 306 323 315 312 312 314 261 319 320 327 339 335 326 321 323 325 318 317 328 330 323 318 316 313 308 305 303 301 300 297 294 293 295
288 289 284 298 299 295 316 297 299 305 307 269 280 141 212 283 263 267 321 322 316 318 260 304 329 317 336 327 313 319 311 309 305 304 301 300 300 299 296 294 295 295 295 293
295 296 291 291 297 296 300 303 233 313 294 207 194 193 146 307 288 313 312 310 308 309 309 324 337 340 269 324 314 306 306 301 302 302 304 303 301 299 295 297 321 309 299 312

GFSCGP_2pvu_pres_162.txt.gz
Presure
164 139 168 160 188 117 162 182 156 161 173 169 178 175 162 171 141 167 176 166 157 169 142 178 144 147 143 169 126 170 172 171 171 169 170 135 163 169 169 167 170 175 169 163
172 176 169 179 165 166 176 162 158 171 144 163 167 180 163 164 162 163 159 160 174 150 144 136 177 190 158 148 135 176 171 170 168 168 169 170 171 167 168 163 162 166 171 177
180 170 166 167 145 163 175 166 183 174 171 171 151 158 177 167 168 165 166 172 161 165 185 208 190 138 140 185 143 158 176 142 172 172 167 168 167 165 162 168 170 172 166 177
191 173 181 150 151 161 164 162 170 161 174 183 162 166 169 168 144 143 147 173 170 156 141 141 199 195 192 181 184 187 178 182 180 179 177 178 178 176 176 180 181 181 185 157
156 174 134 181 180 171 178 159 164 169 152 158 163 178 140 155 84 164 155 171 152 87 67 189 114 189 208 192 177 189 194 187 182 159 185 187 192 188 192 198 195 194 203 202
193 151 158 143 178 154 173 180 159 161 146 173 163 162 103 118 81 88 116 163 164 176 75 112 190 197 188 199 190 186 192 185 184 185 181 182 191 191 196 192 164 197 196 186
173 160 164 175 162 156 177 169 165 166 152 145 156 151 62 168 169 172 172 170 154 175 192 185 191 207 183 189 194 188 188 194 191 185 178 184 184 190 193 185 183 189 189 198
168 161 151 153 167 149 161 168 170 165 160 170 171 158 164 196 184 102 160 179 177 180 181 187 203 203 200 188 178 184 193 194 194 191 189 187 178 189 186 192 188 191 196 193
169 157 164 166 167 166 163 163 163 189 197 162 156 190 201 183 185 201 195 189 181 205 199 190 203 214 180 208 195 201 204 198 187 187 192 189 177 177 185 192 190 193 193 190
162 161 165 153 161 168 157 162 176 194 186 195 192 197 201 209 197 204 198 196 188 193 195 190 190 202 207 202 182 198 189 201 197 192 191 187 192 193 193 199 197 191 209 202
222 217 206 200 211 205 205 200 200 208 184 182 183 197 207 192 191 211 198 183 201 189 209 180 199 206 190 208 186 195 202 193 195 196 196 199 194 194 208 206 194 192 215 206
199 207 197 200 208 200 213 200 202 177 208 184 210 196 181 188 184 204 216 204 204 197 194 179 209 211 183 210 197 174 212 206 212 200 183 211 215 205 213 199 193 223 205 210
199 205 188 180 204 198 174 208 194 198 204 205 180 202 178 195 204 193 202 208 206 215 208 205 196 207 196 198 199 202 205 207 205 209 206 216 201 207 208 201 216 206 223 207
192 199 167 182 180 188 187 184 184 196 182 193 178 183 185 210 194 169 208 193 208 190 215 168 214 203 203 207 222 207 211 216 217 227 221 215 214 208 208 217 212 219 219 230
203 196 209 213 200 199 190 191 201 189 203 188 189 175 203 187 184 212 193 207 200 203 207 208 209 178 207 212 214 220 216 225 227 236 225 221 223 235 233 216 234 237 235 260
220 195 197 220 217 220 196 194 175 208 203 198 202 206 204 205 202 181 209 212 209 203 213 214 217 216 222 227 236 231 227 247 252 249 238 230 243 244 244 243 229 264 278 275
200 206 213 222 219 217 221 221 208 205 216 205 216 211 215 208 213 218 228 235 231 242 227 270 258 269 260 251 261 270 266 279 278 282 269 256 261 261 246 269 275 284 272 262
229 175 213 220 215 217 218 217 221 237 221 218 225 228 231 235 247 245 246 233 262 258 260 267 278 273 270 267 267 274 275 258 248 280 267 268 285 283 273 273 269 266 264 260
214 273 255 255 238 225 284 297 283 268 285 278 283 279 267 264 269 271 283 282 292 274 284 293 270 266 264 254 256 289 284 267 295 292 296 295 289 279 274 272 266 266 264 263
278 277 290 279 297 286 286 282 278 267 277 277 275 273 270 271 307 303 302 268 262 286 276 288 203 305 256 289 306 108 104 304 311 305 302 294 292 289 284 285 281 280 278 276
295 285 296 289 299 292 290 279 274 275 282 271 287 309 306 304 300 295 298 295 315 277 353 346 294 327 324 297 209 316 245 327 324 322 320 317 314 308 301 297 291 290 288 288
310 311 309 298 303 314 309 315 306 309 315 322 278 301 293 325 336 349 320 335 336 337 235 328 328 323 266 278 252 330 267 353 348 356 356 352 346 337 332 332 331 323 326 329
307 308 295 298 319 301 307 291 290 289 292 290 321 297 346 307 323 322 331 326 305 305 177 177 331 339 337 340 310 338 327 337 330 332 334 337 340 334 336 329 323 319 319 314
303 299 293 297 302 300 331 195 326 344 315 288 292 307 318 300 299 320 292 315 230 301 320 322 186 326 321 336 321 318 349 341 323 314 321 327 323 319 314 310 307 304 300 296
288 284 288 295 289 283 291 287 272 280 280 294 300 306 308 328 295 286 300 296 314 313 243 318 320 308 330 252 318 329 336 335 323 316 305 304 308 305 302 300 299 299 300 302
300 298 293 296 287 288 283 283 281 296 256 301 294 277 256 305 295 241 256 210 311 307 318 310 316 315 313 313 237 182 345 292 301 313 305 304 301 302 304 304 303 298 295 296